This is the latest recevied weather packets stored in our database for station/object N4QD-13. If no packets are shown the sender has not sent any weather packets the latest 10 day(s).
| Time | Temp. | Humidity | Pressure | Rain* | Wind** | Luminosity | Snow |
|---|---|---|---|---|---|---|---|
| 1777792019 | 6.67° C | 69% | 1015.8 hPa | 0 mm | - | 0 W/m² | - |
| 1777791718 | 6.67° C | 69% | 1015.8 hPa | 0 mm | - | 0 W/m² | - |
| 1777791415 | 6.67° C | 70% | 1015.8 hPa | 0 mm | - | 0 W/m² | - |
| 1777791112 | 6.67° C | 71% | 1015.8 hPa | 0 mm | - | 0 W/m² | - |
| 1777790809 | 6.11° C | 73% | 1015.7 hPa | 0 mm | - | 0 W/m² | - |
| 1777790506 | 5.56° C | 78% | 1015.7 hPa | 0 mm | - | 0 W/m² | - |
| 1777790203 | 5.56° C | 77% | 1015.9 hPa | 0 mm | - | 0 W/m² | - |
| 1777789902 | 5.56° C | 78% | 1015.8 hPa | 0 mm | - | 0 W/m² | - |
| 1777789600 | 5.56° C | 79% | 1015.8 hPa | 0 mm | - | 0 W/m² | - |
| 1777789298 | 5.56° C | 78% | 1015.8 hPa | 0 mm | - | 0 W/m² | - |
| 1777788995 | 5.56° C | 78% | 1015.7 hPa | 0 mm | - | 0 W/m² | - |
| 1777788691 | 5.56° C | 76% | 1015.8 hPa | 0 mm | - | 0 W/m² | - |
| 1777788387 | 5.56° C | 76% | 1015.9 hPa | 0 mm | - | 0 W/m² | - |
| 1777788081 | 5° C | 79% | 1015.9 hPa | 0 mm | - | 0 W/m² | - |
| 1777787777 | 5° C | 79% | 1015.8 hPa | 0 mm | - | 0 W/m² | - |
| 1777787473 | 5° C | 77% | 1015.9 hPa | 0 mm | - | 0 W/m² | - |
| 1777787169 | 5° C | 77% | 1015.8 hPa | 0 mm | - | 0 W/m² | - |
| 1777786866 | 6.11° C | 73% | 1015.9 hPa | 0 mm | - | 0 W/m² | - |
| 1777786564 | 6.11° C | 71% | 1016.2 hPa | 0 mm | - | 0 W/m² | - |
| 1777786262 | 6.11° C | 71% | 1015.8 hPa | 0 mm | - | 0 W/m² | - |
| 1777785958 | 6.11° C | 71% | 1015.8 hPa | 0 mm | - | 0 W/m² | - |
| 1777785655 | 6.67° C | 71% | 1015.7 hPa | 0 mm | - | 0 W/m² | - |
| 1777785350 | 6.67° C | 70% | 1015.8 hPa | 0 mm | - | 0 W/m² | - |
| 1777785048 | 6.67° C | 69% | 1015.8 hPa | 0 mm | - | 0 W/m² | - |
| 1777784744 | 6.67° C | 69% | 1016.1 hPa | 0 mm | - | 0 W/m² | - |
* Rain latest hour (hover to see other rain measurements)
** Current wind speed in m/s (hover to see current wind gust speed)